Temperature
18 18 18 18 18 18 18 18 17 17 17 17 17 17 17 17 17 17 17 17 17 16 16 16 16 16 16 16 16 16 16 16 16 16 16 16 15 15 15 15 15 15 15
18 18 18 18 18 18 18 17 17 17 17 17 17 17 17 17 17 17 17 16 16 16 16 16 16 16 16 16 16 16 16 16 16 16 16 15 15 15 15 15 15 15 15
18 17 17 18 18 17 17 17 17 17 17 17 17 17 17 17 17 17 16 16 16 16 16 16 16 16 16 16 16 16 15 15 15 15 15 15 15 15 15 15 15 15 15
18 17 17 17 17 17 17 17 17 17 17 17 17 17 17 17 16 16 16 16 16 16 16 16 16 16 16 16 15 15 15 15 15 15 15 15 15 14 14 14 14 14 14
17 17 17 17 17 17 17 17 17 17 17 17 17 16 16 16 16 16 16 16 16 16 16 16 16 15 15 15 15 15 15 15 15 15 15 15 14 14 14 14 14 14 14
17 17 17 17 17 17 17 17 17 17 17 17 16 16 16 16 16 16 16 16 16 16 16 16 16 15 15 15 15 15 15 15 15 15 15 14 14 14 14 14 14 14 14
17 16 16 16 16 16 16 16 16 16 16 16 16 16 16 16 16 16 16 16 16 16 16 16 15 15 15 15 14 14 14 14 14 14 14 14 14 14 13 13 13 13 13
16 16 16 16 16 16 16 16 16 16 16 16 16 16 16 16 16 16 16 16 16 16 16 15 15 15 15 15 14 14 14 14 14 14 14 14 14 13 13 13 13 13 13
16 16 15 15 15 16 16 16 16 16 16 16 16 16 16 16 16 15 15 15 15 15 15 15 15 15 15 15 14 14 14 14 14 14 14 13 13 13 13 13 13 13 13
15 15 15 15 15 15 16 16 16 16 16 16 16 16 16 15 15 15 15 15 15 15 15 15 15 15 15 14 14 14 14 14 14 13 13 13 13 13 13 12 12 12 12
14 15 15 15 15 15 15 15 15 15 15 15 15 15 15 15 15 15 15 15 15 15 15 15 15 15 14 14 14 14 14 14 13 13 13 13 13 12 12 12 12 12 12
14 14 14 15 15 15 15 15 15 15 15 15 15 15 15 15 15 15 15 15 15 15 15 15 15 14 14 14 14 14 13 13 13 13 13 12 12 12 12 12 12 12 12
14 14 14 14 14 15 15 15 15 15 14 14 15 15 15 15 15 15 15 14 14 14 14 14 14 14 14 14 13 13 13 13 13 13 12 12 12 12 12 11 11 11 11
14 14 14 14 14 14 14 14 14 14 14 14 14 14 15 14 14 14 14 14 14 14 14 14 14 14 13 13 13 13 13 12 12 12 12 12 12 11 11 11 11 10 10
14 14 14 14 14 14 14 14 14 14 14 14 14 14 14 14 14 14 14 14 14 14 14 13 13 13 13 13 13 12 12 12 12 12 11 11 11 11 11 10 10 10 10
13 13 13 13 13 13 13 14 14 14 14 14 14 14 14 14 14 14 14 13 13 13 13 13 13 13 13 12 12 12 12 12 11 11 11 11 11 11 10 10 10 9 9
13 13 13 13 13 13 13 13 13 13 13 14 14 13 14 13 13 13 13 13 13 13 13 12 12 12 12 12 12 12 11 11 11 11 11 11 10 10 10 10 9 9 9
13 13 13 13 13 13 13 13 13 13 13 13 13 13 13 13 13 13 13 13 13 12 12 12 12 12 11 11 11 11 11 11 11 10 10 10 10 10 9 9 9 9 9
12 12 12 12 12 12 12 12 13 13 13 13 13 13 13 13 13 13 12 12 12 12 12 12 11 11 11 11 11 11 10 10 10 10 10 10 9 9 9 9 9 9 9
12 12 12 12 12 12 12 12 12 12 12 12 12 12 12 12 12 12 12 12 12 11 11 11 11 11 11 10 10 10 10 10 10 10 9 9 9 9 9 9 9 9 9
11 11 11 12 12 12 12 12 12 12 12 12 12 12 12 12 12 12 11 11 11 11 11 11 10 10 10 10 10 10 10 9 9 9 9 9 9 8 8 8 8 8 8
11 11 11 11 11 11 11 11 12 12 12 12 11 11 11 11 11 11 11 11 11 11 10 10 10 10 10 9 9 9 9 9 9 9 9 8 8 8 8 8 8 8 8
10 10 11 11 11 11 11 11 11 11 11 11 11 11 11 11 11 11 11 10 10 10 10 10 10 9 9 9 9 9 8 8 8 8 8 8 8 8 8 8 7 7 7
10 10 10 10 10 10 11 11 11 11 11 11 11 11 11 10 10 10 10 10 10 10 10 9 9 9 9 9 9 8 8 8 7 7 7 7 7 7 7 7 7 7 7
9 9 10 10 10 10 10 10 10 10 11 10 10 10 10 10 10 10 10 10 10 9 9 9 9 9 9 8 8 8 8 7 7 6 6 7 7 7 7 7 6 6 6
9 9 9 9 9 9 10 10 10 10 10 10 10 10 10 10 10 10 9 9 9 9 9 9 9 8 8 8 8 7 7 7 7 6 6 6 6 6 6 6 6 6 5
Wind_Speed
7 11 17 17 17 17 16 16 16 16 15 15 15 16 16 15 15 15 14 14 13 12 12 12 11 11 11 11 10 10 10 11 10 10 10 10 9 9 9 9 8 7 8
11 14 18 18 18 17 17 16 16 15 15 15 15 15 15 15 14 14 14 13 12 12 11 11 11 10 11 11 11 10 10 11 11 10 10 9 9 9 9 8 8 7 8
14 15 18 18 18 17 17 16 16 15 15 15 15 15 14 14 14 13 13 12 12 11 10 10 10 10 10 10 10 10 10 10 10 10 9 8 8 9 9 8 8 7 7
15 16 16 18 18 18 17 17 16 15 15 15 15 14 14 13 13 12 12 12 11 10 10 9 9 9 9 9 9 9 10 10 9 9 8 7 6 8 9 9 8 8 7
13 15 17 18 18 18 17 17 17 16 16 15 15 14 14 14 13 13 12 11 11 11 10 9 9 8 8 8 8 9 9 9 9 8 7 7 6 6 7 8 8 7 7
11 13 17 19 18 18 18 17 17 16 16 16 15 14 14 13 13 13 12 11 11 10 10 9 9 9 8 8 8 8 8 8 8 8 7 6 5 6 7 7 7 7 6
11 12 16 18 18 18 18 17 16 16 16 15 15 14 14 13 13 12 11 11 11 10 10 9 9 8 8 8 8 8 8 8 8 7 6 6 5 6 6 6 6 7 7
12 12 15 17 17 17 17 17 16 15 15 15 15 14 14 13 13 12 11 11 10 10 9 9 8 8 7 7 7 8 8 7 6 6 5 5 6 6 6 6 6 6 7
11 11 11 14 16 16 16 16 15 15 15 14 14 14 13 13 12 12 11 10 9 9 9 8 7 7 7 7 7 7 7 7 7 6 5 4 5 6 6 6 6 6 6
9 9 9 11 13 13 14 15 15 14 14 14 13 13 13 12 11 11 10 10 9 9 8 7 7 7 7 7 7 7 7 7 7 6 5 4 5 5 5 5 5 6 6
9 7 8 9 11 12 12 13 13 13 13 13 12 12 11 10 10 9 9 9 8 8 7 7 7 7 7 7 7 8 8 6 5 5 4 4 5 5 5 5 5 6 6
10 8 7 7 9 10 10 10 10 10 11 11 11 11 11 10 9 9 9 8 8 8 7 7 7 7 7 7 7 7 7 6 5 4 4 4 4 5 5 5 6 6 6
10 9 7 7 8 8 8 8 8 8 9 9 10 11 11 10 9 8 7 7 7 7 6 6 7 7 7 6 6 6 6 5 4 3 4 4 5 5 5 6 7 7 7
10 9 8 7 7 7 8 7 7 7 7 7 9 10 10 7 6 6 5 5 5 5 5 6 5 6 7 7 6 5 6 5 4 4 4 5 5 5 6 6 7 7 8
10 9 9 8 7 7 7 6 6 6 6 8 9 9 10 7 5 5 4 5 5 5 5 4 5 5 5 5 5 5 4 5 5 4 4 5 5 5 6 6 7 8 8
9 9 8 8 8 8 5 5 6 7 7 8 8 8 10 8 6 5 4 4 4 4 5 5 4 4 3 4 4 4 4 4 4 4 4 5 6 5 6 7 8 8 8
9 8 9 9 8 8 6 6 6 7 8 7 7 9 9 8 8 6 4 3 3 4 5 5 5 5 3 3 3 3 3 3 3 3 3 4 5 6 7 8 8 9 10
8 8 8 8 8 8 6 6 6 7 7 6 7 8 8 9 9 7 4 3 4 5 5 4 3 3 3 2 2 2 2 2 3 3 3 4 5 5 7 8 8 10 11
8 8 7 7 8 7 7 6 6 7 6 6 7 7 7 9 9 7 5 4 5 5 4 3 3 2 2 2 2 2 2 2 2 2 3 3 4 5 7 8 9 10 11
6 7 7 7 6 7 6 5 4 4 3 5 5 6 7 8 9 8 5 5 5 4 3 3 3 3 2 1 2 3 3 3 2 2 2 3 4 6 7 7 8 9 11
6 6 7 7 6 6 5 4 4 4 3 3 3 6 7 8 8 7 5 5 5 4 3 3 3 3 2 1 2 3 3 3 3 2 2 2 3 5 7 7 8 8 9
6 6 6 6 6 6 5 4 3 4 3 3 3 4 6 7 7 7 6 4 4 4 4 3 3 2 1 2 2 2 2 4 4 3 3 2 2 4 6 8 8 8 9
5 6 6 6 6 5 5 4 4 3 3 2 2 2 3 6 7 7 7 6 5 4 4 3 3 3 2 1 1 3 2 1 2 3 3 2 3 3 4 6 7 8 10
4 4 5 5 6 6 6 6 7 6 5 5 4 4 3 5 6 7 7 6 5 4 4 3 3 3 3 2 1 1 1 3 1 2 3 3 4 4 4 5 6 7 9
3 4 4 4 5 5 5 7 7 5 3 3 4 4 4 3 5 6 6 6 5 4 4 3 3 3 3 3 2 1 1 1 1 2 3 4 4 3 3 4 4 6 9
3 3 4 4 4 5 5 6 6 6 6 6 5 5 4 3 3 4 5 5 5 4 4 4 3 3 3 3 2 2 2 1 1 1 2 3 4 4 4 3 3 5 8
Wind_Direction
165 162 154 147 143 138 135 131 128 125 123 120 116 115 114 112 112 111 110 107 104 101 97 93 90 87 87 86 83 80 77 75 72 72 70 68 67 66 65 62 58 59 61
155 155 150 146 143 140 137 134 131 128 125 122 120 118 117 116 114 112 110 108 105 101 97 93 90 87 86 84 82 79 79 78 74 70 67 63 63 65 65 63 60 59 58
145 147 146 145 143 140 137 135 131 129 127 124 124 123 121 119 117 115 112 109 106 103 100 96 91 88 88 85 82 81 80 79 75 68 60 52 56 65 66 65 62 59 56
143 143 144 143 142 140 137 135 132 129 127 126 125 124 123 122 120 117 114 111 108 104 101 98 92 88 89 86 83 82 81 78 72 66 57 51 53 65 65 64 61 58 54
137 142 143 143 142 139 137 135 132 130 127 124 123 123 122 120 118 115 114 111 108 104 101 96 92 88 92 88 85 83 81 77 69 60 51 47 48 61 63 60 58 55 52
134 139 143 144 142 140 137 135 133 132 129 126 124 124 123 122 119 115 112 110 108 105 100 95 93 88 88 88 84 82 83 78 67 57 47 43 50 58 58 56 53 49 46
137 138 142 143 142 139 137 136 134 133 132 129 127 125 124 123 120 116 113 110 107 104 102 97 94 90 86 83 78 78 84 78 68 56 44 41 52 56 55 51 46 42 40
138 135 139 142 140 139 137 136 136 135 135 133 129 127 125 122 120 118 114 111 107 104 101 100 95 92 87 81 75 75 77 73 68 56 47 45 58 58 54 51 47 43 38
132 132 132 136 137 137 136 135 135 135 134 133 131 128 125 123 121 119 115 111 108 106 101 100 97 91 85 76 73 76 75 73 68 56 45 40 53 52 49 45 42 38 33
127 130 130 131 131 131 132 133 133 135 135 133 131 127 124 121 120 118 116 113 110 107 104 100 98 90 81 72 70 70 71 73 67 55 39 40 47 43 41 35 30 25 19
133 133 131 130 130 130 131 133 131 131 131 131 128 125 121 116 113 112 114 113 110 105 100 95 89 82 72 64 62 66 69 75 72 56 41 43 43 37 33 29 20 16 12
151 148 141 136 136 133 131 128 126 126 126 126 124 123 120 116 112 110 108 106 104 98 91 83 76 66 59 55 59 65 71 73 70 52 42 41 36 35 33 25 17 13 8
157 153 150 145 140 137 132 132 127 126 124 122 125 124 120 112 107 101 95 91 91 86 74 71 68 63 56 53 58 66 69 70 67 53 40 40 37 35 34 30 23 15 8
157 157 155 149 142 143 139 135 134 131 127 125 127 129 123 114 107 104 96 90 84 80 73 72 69 66 60 56 61 67 66 67 63 51 41 44 43 39 32 25 17 10 4
160 159 157 152 148 145 139 140 138 136 135 134 129 130 130 125 126 115 104 93 84 82 81 77 73 68 60 54 57 66 65 66 64 55 46 41 37 33 23 16 9 3 359
164 163 158 156 150 143 143 144 143 140 137 133 131 133 133 129 128 123 112 102 86 85 88 90 87 81 69 60 57 57 62 64 64 57 46 36 31 23 14 8 5 359 354
163 160 159 158 151 147 146 146 142 140 136 133 135 136 134 131 130 125 121 114 98 93 91 85 78 71 64 54 48 45 55 57 62 56 47 46 38 25 18 8 4 359 353
153 155 162 159 153 151 147 144 141 138 135 137 138 138 138 134 132 124 121 120 106 96 92 96 86 74 57 48 38 22 36 44 49 55 59 55 45 30 18 10 2 357 351
156 155 155 151 152 150 142 136 135 133 134 138 139 139 141 137 134 128 124 120 111 97 91 97 81 86 75 44 34 31 23 29 26 50 49 49 43 31 19 10 3 358 352
152 150 148 143 145 139 132 125 120 119 125 132 141 147 146 142 136 128 122 119 114 105 95 95 96 75 82 67 52 32 10 7 26 35 22 31 33 27 18 5 359 353 348
138 142 148 146 147 143 146 149 149 156 156 158 152 152 148 146 141 133 127 121 119 123 125 121 111 93 56 52 60 24 2 3 12 12 12 19 16 14 10 359 352 345 342
151 154 155 158 159 159 165 168 165 153 159 161 154 148 151 149 149 146 138 136 132 129 121 123 120 110 62 48 92 79 10 350 352 355 348 360 2 5 1 353 348 342 338
162 168 171 170 165 163 154 135 126 106 106 130 157 171 164 158 153 149 146 141 140 140 145 152 145 137 145 18 68 124 128 239 308 325 333 346 350 354 344 342 343 341 339
177 171 167 167 164 161 154 158 164 164 170 184 176 176 167 158 155 157 152 147 146 143 147 157 149 152 145 151 40 59 150 168 186 308 319 330 339 335 327 334 336 335 337
162 164 162 161 161 160 162 169 169 166 166 157 153 157 163 163 161 160 156 148 148 147 152 147 144 146 150 159 164 150 90 82 177 195 281 312 327 315 314 315 318 326 333
138 151 153 158 166 166 165 170 169 167 162 158 163 172 175 171 164 164 159 152 150 148 153 150 149 145 142 145 149 156 162 179 212 200 252 291 303 303 307 308 312 322 332
Height
1509 1511 1514 1516 1518 1520 1521 1523 1524 1525 1527 1528 1529 1530 1531 1532 1533 1534 1534 1535 1535 1536 1536 1537 1537 1537 1537 1537 1537 1537 1537 1537 1537 1536 1536 1536 1536 1536 1535 1535 1535 1534 1534
1507 1510 1513 1516 1518 1519 1521 1523 1524 1526 1527 1528 1530 1531 1532 1533 1534 1534 1535 1535 1536 1536 1537 1537 1537 1537 1537 1537 1537 1537 1537 1537 1537 1537 1536 1536 1536 1536 1535 1535 1535 1534 1534
1507 1510 1513 1515 1517 1519 1521 1523 1524 1526 1527 1529 1530 1531 1532 1533 1534 1535 1535 1536 1536 1537 1537 1537 1537 1537 1537 1537 1537 1537 1537 1537 1537 1537 1536 1536 1536 1536 1535 1535 1535 1534 1534
1507 1509 1512 1515 1517 1519 1521 1522 1524 1526 1527 1529 1530 1531 1532 1533 1534 1535 1535 1536 1537 1537 1537 1538 1538 1538 1538 1538 1538 1538 1538 1537 1537 1537 1537 1536 1536 1536 1535 1535 1534 1534 1534
1507 1509 1512 1514 1516 1518 1520 1522 1524 1525 1527 1528 1530 1531 1532 1533 1534 1535 1535 1536 1537 1537 1537 1538 1538 1538 1538 1538 1538 1538 1538 1538 1537 1537 1537 1536 1536 1536 1535 1535 1534 1534 1533
1507 1509 1511 1514 1516 1518 1520 1522 1523 1525 1527 1528 1529 1531 1532 1533 1534 1535 1535 1536 1536 1537 1537 1537 1538 1538 1538 1538 1538 1538 1538 1538 1537 1537 1537 1536 1536 1535 1535 1534 1534 1534 1533
1506 1509 1511 1513 1515 1517 1519 1521 1523 1525 1526 1528 1529 1530 1531 1532 1534 1534 1535 1536 1536 1537 1537 1537 1537 1538 1538 1538 1538 1538 1537 1537 1537 1537 1536 1536 1535 1535 1535 1534 1533 1533 1532
1506 1508 1511 1513 1515 1517 1519 1521 1523 1524 1526 1527 1528 1530 1531 1532 1533 1534 1535 1535 1536 1536 1537 1537 1537 1537 1537 1537 1537 1537 1537 1537 1537 1536 1536 1535 1535 1535 1534 1533 1533 1532 1531
1506 1508 1510 1512 1514 1516 1518 1520 1522 1524 1525 1526 1528 1529 1530 1531 1532 1533 1534 1535 1535 1536 1536 1536 1537 1537 1537 1537 1537 1537 1536 1536 1536 1536 1535 1535 1534 1534 1533 1532 1532 1531 1530
1505 1507 1509 1511 1513 1515 1517 1519 1521 1523 1524 1526 1527 1528 1529 1530 1531 1532 1533 1534 1534 1535 1535 1535 1536 1536 1536 1536 1536 1536 1536 1535 1535 1535 1534 1534 1533 1533 1532 1531 1531 1530 1529
1504 1506 1508 1510 1512 1514 1516 1518 1520 1522 1523 1525 1526 1527 1528 1529 1530 1531 1532 1533 1533 1534 1534 1534 1535 1535 1535 1535 1535 1535 1535 1535 1534 1534 1533 1533 1532 1532 1531 1530 1529 1528 1527
1501 1504 1506 1509 1511 1513 1515 1517 1519 1520 1522 1523 1525 1526 1527 1528 1529 1530 1531 1531 1532 1532 1533 1533 1534 1534 1534 1534 1534 1534 1534 1534 1533 1533 1532 1532 1531 1530 1530 1529 1528 1527 1526
1499 1502 1505 1507 1509 1511 1513 1515 1517 1519 1521 1522 1523 1525 1526 1527 1528 1529 1529 1530 1531 1531 1532 1532 1532 1533 1533 1533 1533 1533 1533 1532 1532 1532 1531 1531 1530 1529 1528 1527 1527 1525 1524
1498 1500 1503 1505 1508 1510 1512 1514 1515 1517 1519 1520 1522 1523 1524 1525 1526 1527 1528 1529 1529 1530 1530 1531 1531 1532 1532 1532 1532 1532 1532 1531 1531 1530 1530 1529 1528 1528 1527 1526 1525 1524 1523
1496 1498 1501 1503 1506 1508 1510 1512 1514 1516 1517 1519 1520 1521 1523 1524 1525 1526 1527 1527 1528 1528 1529 1530 1530 1530 1531 1531 1531 1531 1530 1530 1530 1529 1529 1528 1527 1526 1525 1524 1523 1522 1521
1493 1496 1499 1502 1504 1506 1508 1510 1512 1514 1516 1517 1519 1520 1521 1522 1523 1524 1525 1526 1527 1527 1528 1528 1529 1529 1529 1530 1530 1529 1529 1529 1528 1528 1527 1527 1526 1525 1524 1523 1521 1520 1519
1491 1494 1497 1499 1502 1504 1506 1508 1510 1512 1514 1515 1517 1518 1520 1520 1521 1522 1523 1524 1525 1526 1527 1527 1527 1528 1528 1528 1528 1528 1528 1527 1527 1527 1526 1525 1524 1523 1522 1521 1519 1518 1517
1489 1492 1495 1497 1500 1502 1504 1507 1508 1510 1512 1513 1515 1517 1518 1519 1520 1521 1522 1523 1524 1525 1525 1526 1526 1526 1527 1527 1527 1526 1526 1526 1526 1525 1524 1524 1523 1522 1521 1519 1517 1516 1514
1487 1490 1492 1495 1497 1500 1502 1504 1506 1508 1510 1512 1513 1515 1516 1517 1518 1519 1520 1521 1522 1523 1524 1524 1524 1525 1525 1525 1525 1525 1525 1524 1524 1524 1523 1522 1521 1520 1519 1517 1516 1514 1512
1485 1488 1490 1492 1495 1497 1500 1502 1503 1506 1508 1510 1511 1513 1514 1515 1516 1517 1518 1520 1520 1521 1522 1523 1523 1523 1524 1524 1524 1523 1523 1523 1523 1522 1522 1521 1520 1519 1517 1516 1514 1512 1510
1483 1485 1487 1490 1492 1495 1497 1498 1500 1502 1505 1507 1509 1511 1512 1513 1514 1515 1516 1518 1519 1520 1520 1521 1521 1521 1522 1522 1522 1522 1522 1522 1521 1521 1520 1519 1518 1517 1516 1514 1512 1510 1508
1480 1483 1485 1488 1490 1492 1495 1497 1499 1501 1503 1505 1507 1509 1510 1511 1512 1513 1515 1516 1517 1518 1519 1519 1519 1519 1520 1520 1520 1520 1520 1521 1520 1520 1519 1518 1517 1515 1514 1512 1510 1508 1505
1478 1480 1483 1485 1487 1490 1492 1495 1497 1499 1500 1503 1504 1506 1508 1510 1510 1512 1513 1514 1516 1516 1517 1518 1518 1518 1518 1519 1519 1519 1519 1518 1518 1517 1517 1516 1515 1513 1512 1510 1508 1505 1503
1477 1479 1481 1483 1485 1487 1490 1492 1494 1495 1496 1499 1502 1504 1506 1507 1508 1510 1511 1512 1513 1514 1515 1516 1516 1517 1517 1517 1517 1518 1518 1517 1516 1514 1514 1513 1512 1511 1509 1507 1505 1503 1500
1475 1477 1479 1481 1483 1485 1487 1489 1491 1493 1495 1497 1499 1501 1503 1505 1506 1508 1509 1510 1511 1512 1513 1514 1514 1515 1515 1515 1515 1515 1515 1515 1514 1513 1510 1510 1509 1508 1507 1505 1503 1500 1498
1474 1475 1477 1478 1480 1482 1484 1487 1489 1491 1493 1494 1496 1499 1501 1502 1504 1505 1506 1507 1508 1509 1510 1511 1512 1513 1513 1513 1513 1513 1513 1513 1512 1511 1509 1507 1505 1504 1503 1502 1500 1497 1495